METEOR 2-14

导读

METEOR 2-14是独联体(CIS)发射的第二代极轨气象卫星,属于苏联/俄罗斯“流星(METEOR)”气象卫星系列。该卫星于1986年5月27日发射升空,运行于近地轨道,主要承担气象观测、气候研究与灾害监测任务,为天气预报和全球气象研究提供关键数据支持,延续了“流星”系列持续服务气象领域的任务目标。

Basic Information
目录编号:
16735
目录名称:
METEOR 2-14
国际标识:
1986-039A
轨道中心:
EARTH
卫星名称:
METEOR 2-14
卫星全名:
--
卫星状态:
在轨 (已飞行14718 天)
发射日期:
1986-05-27 UTC
国别 :
俄罗斯(独联体) (CIS)
星等 :
--
This satellite is enrolled in the Space Conjunction Data Service (SCDS) and the current flight risk assessment level is: No High Risk
Orbit Information
数据来源 国际轨道数据 AOE轨道数据
星历时间 2026-09-11T17:21:33+0800
17小时前
查看轨道信息
2026-09-06T17:00:00+0800
5天前
查看轨道信息
半长轴 7322.381km 7322.381km
偏心率 0.0013816 0.0013905
轨道倾角 82.536° 82.531°
近地点辐角 326.608° 341.290°
升交点赤经 215.101° 219.098°
平近点角 154.982° 339.769°
近地点 934.127km 934.062km
远地点 954.361km 954.426km
周期 103.929分钟 103.929分钟
每日圈数 13.855567 13.855569
Detailed Information
使用方式:
暂无
2D Orbit Map
3D Orbit Map
Orbit Altitude Analysis Chart
Orbit Inclination Analysis Chart
Orbit Comprehensive Analysis Chart
View Comprehensive Chart
Conjunction Data List
Event ID Objects TCA Miss Dist (km) Collision Risk Probability Collision Risk Index (CRI) Action
CDM_260913-043201-271201-673525
2026-09-13T
04:32:34+0000
1.040 km
极远距离
1.045586E-5 中风险 0.55
Miss Distance Evolution Trend with All Objects
Collision Probability Evolution Trend with All Objects